Time,TemperatureF,DewpointF,PressureIn,WindDirection,WindDirectionDegrees,WindSpeedMPH,WindSpeedGustMPH,Humidity,HourlyPrecipIn,Conditions,Clouds,dailyrainin,SoftwareType,DateUTC
2013-02-11 00:00:00,67.3,56.0,30.15,NE,54,0.0,2.0,67,0.00,,,0.00,WSDL version 420,2013-02-11 05:00:00,
2013-02-11 00:05:00,67.4,55.9,30.15,ENE,68,1.1,1.3,66,0.00,,,0.00,WSDL version 420,2013-02-11 05:05:00,
2013-02-11 00:10:00,67.5,55.7,30.15,East,79,0.6,0.0,66,0.00,,,0.00,WSDL version 420,2013-02-11 05:10:00,
2013-02-11 00:15:00,67.3,55.5,30.15,East,99,0.0,1.1,66,0.00,,,0.00,WSDL version 420,2013-02-11 05:15:00,
2013-02-11 00:20:00,67.2,55.4,30.15,SSE,158,0.0,1.1,66,0.00,,,0.00,WSDL version 420,2013-02-11 05:20:00,
2013-02-11 00:25:00,66.9,55.6,30.15,SSE,158,0.0,0.0,67,0.00,,,0.00,WSDL version 420,2013-02-11 05:25:00,
2013-02-11 00:30:00,66.6,55.3,30.15,SSE,158,0.0,0.0,67,0.00,,,0.00,WSDL version 420,2013-02-11 05:30:00,
2013-02-11 00:35:00,66.4,55.1,30.15,SSE,158,0.0,0.0,67,0.00,,,0.00,WSDL version 420,2013-02-11 05:35:00,
2013-02-11 00:40:00,66.0,55.1,30.15,SSE,158,0.0,0.0,68,0.00,,,0.00,WSDL version 420,2013-02-11 05:40:00,
2013-02-11 00:45:00,65.8,55.3,30.15,SSE,158,0.0,0.0,69,0.00,,,0.00,WSDL version 420,2013-02-11 05:45:00,
2013-02-11 00:50:00,65.5,55.1,30.15,SSE,158,0.0,0.0,69,0.00,,,0.00,WSDL version 420,2013-02-11 05:50:00,
2013-02-11 00:55:00,65.5,55.1,30.15,SSE,158,0.0,0.0,69,0.00,,,0.00,WSDL version 420,2013-02-11 05:55:00,
2013-02-11 01:00:00,65.4,55.4,30.15,SSE,158,0.0,0.0,70,0.00,,,0.00,WSDL version 420,2013-02-11 06:00:00,
2013-02-11 01:05:00,65.5,55.5,30.15,South,169,0.0,0.0,71,0.00,,,0.00,WSDL version 420,2013-02-11 06:05:00,
2013-02-11 01:10:00,65.5,55.9,30.15,SSW,203,0.0,0.0,71,0.00,,,0.00,WSDL version 420,2013-02-11 06:10:00,
2013-02-11 01:15:00,65.5,55.8,30.15,SSW,203,0.0,0.0,71,0.00,,,0.00,WSDL version 420,2013-02-11 06:15:00,
2013-02-11 01:20:00,65.5,56.0,30.15,SSW,203,0.0,0.0,72,0.00,,,0.00,WSDL version 420,2013-02-11 06:20:00,
2013-02-11 01:25:00,65.7,56.4,30.15,SSW,203,0.0,0.0,72,0.00,,,0.00,WSDL version 420,2013-02-11 06:25:00,
2013-02-11 01:30:00,65.7,56.5,30.15,SSW,203,0.0,0.0,73,0.00,,,0.00,WSDL version 420,2013-02-11 06:30:00,
2013-02-11 01:35:00,65.7,56.8,30.15,SSW,203,0.0,0.0,73,0.00,,,0.00,WSDL version 420,2013-02-11 06:35:00,
2013-02-11 01:40:00,65.7,56.7,30.12,WSW,239,0.0,0.0,72,0.00,,,0.00,WSDL version 420,2013-02-11 06:40:00,
2013-02-11 01:45:00,65.7,56.5,30.12,ESE,104,0.0,0.0,73,0.00,,,0.00,WSDL version 420,2013-02-11 06:45:00,
2013-02-11 01:50:00,65.7,56.8,30.12,SSE,158,0.0,0.0,73,0.00,,,0.00,WSDL version 420,2013-02-11 06:50:00,
2013-02-11 02:00:00,65.7,57.0,30.12,East,90,0.0,0.0,74,0.00,,,0.00,WSDL version 420,2013-02-11 07:00:00,
2013-02-11 02:05:00,65.8,57.3,30.12,East,90,0.0,0.0,74,0.00,,,0.00,WSDL version 420,2013-02-11 07:05:00,
2013-02-11 02:10:00,65.8,57.3,30.12,East,90,0.0,0.0,74,0.00,,,0.00,WSDL version 420,2013-02-11 07:10:00,
2013-02-11 02:15:00,65.8,57.4,30.12,East,90,0.0,0.0,75,0.00,,,0.00,WSDL version 420,2013-02-11 07:15:00,
2013-02-11 02:20:00,65.8,57.7,30.12,East,90,0.0,0.0,75,0.00,,,0.00,WSDL version 420,2013-02-11 07:20:00,
2013-02-11 02:25:00,65.8,57.7,30.12,East,90,0.0,0.0,75,0.00,,,0.00,WSDL version 420,2013-02-11 07:25:00,
2013-02-11 02:30:00,65.9,57.9,30.12,East,90,0.0,0.0,76,0.00,,,0.00,WSDL version 420,2013-02-11 07:30:00,
2013-02-11 02:35:00,66.0,58.2,30.12,ENE,71,0.0,0.0,76,0.00,,,0.00,WSDL version 420,2013-02-11 07:35:00,
2013-02-11 02:40:00,66.2,58.4,30.12,ESE,113,0.0,0.9,76,0.00,,,0.00,WSDL version 420,2013-02-11 07:40:00,
2013-02-11 02:45:00,66.3,58.6,30.12,SSE,149,0.0,0.9,76,0.00,,,0.00,WSDL version 420,2013-02-11 07:45:00,
2013-02-11 02:50:00,66.6,58.8,30.12,SSW,203,0.0,0.9,76,0.00,,,0.00,WSDL version 420,2013-02-11 07:50:00,
2013-02-11 02:55:00,66.7,58.9,30.12,ESE,122,0.0,2.0,76,0.00,,,0.00,WSDL version 420,2013-02-11 07:55:00,
2013-02-11 03:00:00,66.8,58.7,30.12,NE,56,0.0,2.0,75,0.00,,,0.00,WSDL version 420,2013-02-11 08:00:00,
2013-02-11 03:05:00,66.7,58.6,30.09,NE,45,0.0,0.0,75,0.00,,,0.00,WSDL version 420,2013-02-11 08:05:00,
2013-02-11 03:10:00,66.7,58.2,30.09,NE,45,0.0,0.0,74,0.00,,,0.00,WSDL version 420,2013-02-11 08:10:00,
2013-02-11 03:15:00,66.6,58.0,30.09,East,90,0.0,0.0,74,0.00,,,0.00,WSDL version 420,2013-02-11 08:15:00,
2013-02-11 03:20:00,66.4,57.9,30.09,East,90,0.0,0.0,74,0.00,,,0.00,WSDL version 420,2013-02-11 08:20:00,
2013-02-11 03:25:00,66.2,57.3,30.09,East,90,0.0,0.0,73,0.00,,,0.00,WSDL version 420,2013-02-11 08:25:00,
2013-02-11 03:30:00,65.9,57.4,30.09,East,90,0.0,0.0,74,0.00,,,0.00,WSDL version 420,2013-02-11 08:30:00,
2013-02-11 03:35:00,65.7,57.2,30.12,East,90,0.0,0.0,74,0.00,,,0.00,WSDL version 420,2013-02-11 08:35:00,
2013-02-11 03:40:00,65.3,57.1,30.12,East,90,0.0,0.0,75,0.00,,,0.00,WSDL version 420,2013-02-11 08:40:00,
2013-02-11 03:45:00,65.0,57.1,30.12,East,90,0.0,0.0,76,0.00,,,0.00,WSDL version 420,2013-02-11 08:45:00,
2013-02-11 03:50:00,64.9,57.1,30.12,East,90,0.0,0.0,76,0.00,,,0.00,WSDL version 420,2013-02-11 08:50:00,
2013-02-11 03:55:00,64.7,57.3,30.12,East,90,0.0,0.0,77,0.00,,,0.00,WSDL version 420,2013-02-11 08:55:00,
2013-02-11 04:00:00,64.3,57.1,30.12,East,90,0.0,0.0,78,0.00,,,0.00,WSDL version 420,2013-02-11 09:00:00,
2013-02-11 04:05:00,64.2,57.3,30.12,East,90,0.0,0.0,79,0.00,,,0.00,WSDL version 420,2013-02-11 09:05:00,
2013-02-11 04:10:00,64.0,57.3,30.12,East,90,0.0,0.0,79,0.00,,,0.00,WSDL version 420,2013-02-11 09:10:00,
2013-02-11 04:15:00,63.7,57.1,30.12,East,90,0.0,0.0,79,0.00,,,0.00,WSDL version 420,2013-02-11 09:15:00,
2013-02-11 04:20:00,63.5,57.0,30.12,East,90,0.0,0.0,80,0.00,,,0.00,WSDL version 420,2013-02-11 09:20:00,
2013-02-11 04:25:00,63.3,57.1,30.12,East,90,0.0,0.0,80,0.00,,,0.00,WSDL version 420,2013-02-11 09:25:00,
2013-02-11 04:35:00,63.0,56.7,30.12,East,90,0.0,0.0,80,0.00,,,0.00,WSDL version 420,2013-02-11 09:35:00,
2013-02-11 04:40:00,62.9,56.8,30.09,NE,45,0.0,1.3,81,0.00,,,0.00,WSDL version 420,2013-02-11 09:40:00,
2013-02-11 04:45:00,62.6,56.8,30.09,NE,45,0.0,1.3,82,0.00,,,0.00,WSDL version 420,2013-02-11 09:45:00,
2013-02-11 04:50:00,62.3,56.8,30.09,NE,45,0.0,0.0,82,0.00,,,0.00,WSDL version 420,2013-02-11 09:50:00,
2013-02-11 04:55:00,62.2,56.8,30.12,NE,45,0.0,0.0,82,0.00,,,0.00,WSDL version 420,2013-02-11 09:55:00,
2013-02-11 05:00:00,62.2,56.8,30.12,ESE,113,0.0,0.0,82,0.00,,,0.00,WSDL version 420,2013-02-11 10:00:00,
2013-02-11 05:05:00,62.2,56.7,30.12,SE,135,0.0,0.0,82,0.00,,,0.00,WSDL version 420,2013-02-11 10:05:00,
2013-02-11 05:10:00,62.1,56.6,30.12,SE,135,0.0,0.0,82,0.00,,,0.00,WSDL version 420,2013-02-11 10:10:00,
2013-02-11 05:15:00,62.1,56.6,30.12,SE,135,0.0,0.0,82,0.00,,,0.00,WSDL version 420,2013-02-11 10:15:00,
2013-02-11 05:20:00,62.0,56.5,30.12,SE,135,0.0,0.0,82,0.00,,,0.00,WSDL version 420,2013-02-11 10:20:00,
2013-02-11 05:30:00,61.8,56.5,30.12,SE,135,0.0,0.0,83,0.00,,,0.00,WSDL version 420,2013-02-11 10:30:00,
2013-02-11 05:35:00,61.8,56.7,30.09,SE,135,0.0,0.0,83,0.00,,,0.00,WSDL version 420,2013-02-11 10:35:00,
2013-02-11 05:40:00,61.7,56.6,30.09,SE,135,0.0,0.0,83,0.00,,,0.00,WSDL version 420,2013-02-11 10:40:00,
2013-02-11 05:45:00,61.4,55.9,30.09,NNW,347,0.0,0.0,82,0.00,,,0.00,WSDL version 420,2013-02-11 10:45:00,
2013-02-11 05:50:00,61.3,56.0,30.12,North,360,0.0,0.0,83,0.00,,,0.00,WSDL version 420,2013-02-11 10:50:00,
2013-02-11 06:00:00,61.3,56.2,30.12,North,360,0.0,0.0,83,0.00,,,0.00,WSDL version 420,2013-02-11 11:00:00,
2013-02-11 06:05:00,61.3,56.2,30.12,North,360,0.0,0.0,83,0.00,,,0.00,WSDL version 420,2013-02-11 11:05:00,
2013-02-11 06:10:00,61.3,56.2,30.12,North,360,0.0,0.0,83,0.00,,,0.00,WSDL version 420,2013-02-11 11:10:00,
2013-02-11 06:15:00,61.2,56.2,30.12,North,360,0.0,0.0,84,0.00,,,0.00,WSDL version 420,2013-02-11 11:15:00,
2013-02-11 06:20:00,61.2,56.4,30.12,North,360,0.0,0.0,84,0.00,,,0.00,WSDL version 420,2013-02-11 11:20:00,
2013-02-11 06:25:00,61.0,56.3,30.12,North,360,0.0,0.0,84,0.00,,,0.00,WSDL version 420,2013-02-11 11:25:00,
2013-02-11 06:30:00,61.0,56.3,30.12,North,360,0.0,0.0,84,0.00,,,0.00,WSDL version 420,2013-02-11 11:30:00,
2013-02-11 06:35:00,61.0,56.3,30.12,North,360,0.0,0.0,84,0.00,,,0.00,WSDL version 420,2013-02-11 11:35:00,
2013-02-11 06:40:00,61.0,56.3,30.12,North,360,0.0,0.0,84,0.00,,,0.00,WSDL version 420,2013-02-11 11:40:00,
2013-02-11 06:45:00,60.8,56.1,30.12,North,360,0.0,0.0,84,0.00,,,0.00,WSDL version 420,2013-02-11 11:45:00,
2013-02-11 06:50:00,60.7,56.0,30.12,North,360,0.0,0.0,84,0.00,,,0.00,WSDL version 420,2013-02-11 11:50:00,
2013-02-11 06:55:00,60.6,56.0,30.12,North,360,0.0,0.0,86,0.00,,,0.00,WSDL version 420,2013-02-11 11:55:00,
2013-02-11 07:00:00,60.6,56.3,30.12,North,360,0.0,0.0,86,0.00,,,0.00,WSDL version 420,2013-02-11 12:00:00,
2013-02-11 07:05:00,60.6,56.3,30.12,North,360,0.0,0.0,86,0.00,,,0.00,WSDL version 420,2013-02-11 12:05:00,
2013-02-11 07:10:00,60.6,56.3,30.12,North,360,0.0,0.0,87,0.00,,,0.00,WSDL version 420,2013-02-11 12:10:00,
2013-02-11 07:15:00,60.6,56.6,30.12,North,360,0.0,0.0,87,0.00,,,0.00,WSDL version 420,2013-02-11 12:15:00,
2013-02-11 07:20:00,60.6,56.6,30.12,North,360,0.0,0.0,87,0.00,,,0.00,WSDL version 420,2013-02-11 12:20:00,
2013-02-11 07:25:00,60.7,56.5,30.15,North,360,0.0,0.0,86,0.00,,,0.00,WSDL version 420,2013-02-11 12:25:00,
2013-02-11 07:30:00,61.0,57.0,30.15,North,360,0.0,0.0,87,0.00,,,0.00,WSDL version 420,2013-02-11 12:30:00,
2013-02-11 07:35:00,61.0,57.0,30.15,North,360,0.0,0.0,87,0.00,,,0.00,WSDL version 420,2013-02-11 12:35:00,
2013-02-11 07:40:00,61.2,57.2,30.15,North,360,0.0,0.0,87,0.00,,,0.00,WSDL version 420,2013-02-11 12:40:00,
2013-02-11 07:45:00,61.4,57.4,30.15,North,360,0.0,0.0,87,0.00,,,0.00,WSDL version 420,2013-02-11 12:45:00,
2013-02-11 07:50:00,61.7,57.7,30.18,North,360,0.0,0.0,87,0.00,,,0.00,WSDL version 420,2013-02-11 12:50:00,
2013-02-11 07:55:00,62.1,58.0,30.18,NE,45,0.0,0.0,87,0.00,,,0.00,WSDL version 420,2013-02-11 12:55:00,
2013-02-11 08:00:00,62.4,58.4,30.18,NE,45,0.0,0.0,87,0.00,,,0.00,WSDL version 420,2013-02-11 13:00:00,
2013-02-11 08:05:00,63.0,59.0,30.15,NE,45,0.0,0.0,87,0.00,,,0.00,WSDL version 420,2013-02-11 13:05:00,
2013-02-11 08:10:00,63.6,59.9,30.15,ENE,62,0.0,0.0,88,0.00,,,0.00,WSDL version 420,2013-02-11 13:10:00,
2013-02-11 08:20:00,64.8,61.1,30.15,East,98,0.0,0.0,88,0.00,,,0.00,WSDL version 420,2013-02-11 13:20:00,
2013-02-11 08:25:00,65.4,61.6,30.15,SE,146,0.0,2.2,87,0.00,,,0.00,WSDL version 420,2013-02-11 13:25:00,
2013-02-11 08:30:00,66.0,61.9,30.15,ENE,71,0.0,2.2,87,0.00,,,0.00,WSDL version 420,2013-02-11 13:30:00,
2013-02-11 08:35:00,66.7,62.3,30.18,ESE,108,0.9,2.2,86,0.00,,,0.00,WSDL version 420,2013-02-11 13:35:00,
2013-02-11 08:40:00,67.5,62.7,30.18,NE,42,0.8,2.5,83,0.00,,,0.00,WSDL version 420,2013-02-11 13:40:00,
2013-02-11 08:45:00,68.0,62.5,30.18,SSE,158,1.5,4.0,82,0.00,,,0.00,WSDL version 420,2013-02-11 13:45:00,
2013-02-11 08:50:00,68.7,62.5,30.18,SE,140,1.9,4.0,80,0.00,,,0.00,WSDL version 420,2013-02-11 13:50:00,
2013-02-11 08:55:00,69.1,62.3,30.18,South,176,1.8,3.8,79,0.00,,,0.00,WSDL version 420,2013-02-11 13:55:00,
2013-02-11 09:00:00,69.6,62.0,30.18,SE,144,2.3,4.0,75,0.00,,,0.00,WSDL version 420,2013-02-11 14:00:00,
2013-02-11 09:05:00,70.0,61.7,30.18,SSE,154,1.3,4.0,75,0.00,,,0.00,WSDL version 420,2013-02-11 14:05:00,
2013-02-11 09:10:00,70.6,62.0,30.18,SE,124,2.5,4.0,73,0.00,,,0.00,WSDL version 420,2013-02-11 14:10:00,
2013-02-11 09:15:00,71.0,61.2,30.18,SE,127,2.0,3.8,70,0.00,,,0.00,WSDL version 420,2013-02-11 14:15:00,
2013-02-11 09:20:00,71.5,61.0,30.18,SE,135,2.6,5.6,69,0.00,,,0.00,WSDL version 420,2013-02-11 14:20:00,
2013-02-11 09:25:00,72.0,60.2,30.18,SSE,158,2.6,6.3,66,0.00,,,0.00,WSDL version 420,2013-02-11 14:25:00,
2013-02-11 09:35:00,73.0,58.6,30.18,ESE,117,3.8,4.3,60,0.00,,,0.00,WSDL version 420,2013-02-11 14:35:00,
2013-02-11 09:40:00,73.2,58.2,30.18,SSE,161,4.0,7.4,58,0.00,,,0.00,WSDL version 420,2013-02-11 14:40:00,
2013-02-11 09:45:00,73.5,57.6,30.18,SSE,158,2.3,7.4,57,0.00,,,0.00,WSDL version 420,2013-02-11 14:45:00,
2013-02-11 09:50:00,73.9,58.2,30.18,SSW,203,2.4,4.0,57,0.00,,,0.00,WSDL version 420,2013-02-11 14:50:00,
2013-02-11 09:55:00,74.1,58.4,30.18,ESE,113,3.1,7.4,58,0.00,,,0.00,WSDL version 420,2013-02-11 14:55:00,
2013-02-11 10:05:00,74.9,57.8,30.18,SSE,167,2.2,7.8,55,0.00,,,0.00,WSDL version 420,2013-02-11 15:05:00,
2013-02-11 10:10:00,75.3,57.7,30.18,South,191,5.6,8.5,54,0.00,,,0.00,WSDL version 420,2013-02-11 15:10:00,
2013-02-11 10:15:00,75.6,57.5,30.18,East,100,2.9,8.5,54,0.00,,,0.00,WSDL version 420,2013-02-11 15:15:00,
2013-02-11 10:20:00,75.6,56.9,30.18,NNW,338,4.4,8.5,51,0.00,,,0.00,WSDL version 420,2013-02-11 15:20:00,
2013-02-11 10:25:00,76.0,57.5,30.18,South,183,3.7,8.5,53,0.00,,,0.00,WSDL version 420,2013-02-11 15:25:00,
2013-02-11 10:35:00,76.6,57.8,30.18,SW,231,3.4,6.0,53,0.00,,,0.00,WSDL version 420,2013-02-11 15:35:00,
2013-02-11 10:40:00,77.1,58.5,30.18,SSE,158,4.1,7.8,52,0.00,,,0.00,WSDL version 420,2013-02-11 15:40:00,
2013-02-11 10:45:00,77.1,58.2,30.18,SE,139,4.5,7.8,52,0.00,,,0.00,WSDL version 420,2013-02-11 15:45:00,
2013-02-11 10:55:00,77.6,57.2,30.18,East,92,3.3,6.3,49,0.00,,,0.00,WSDL version 420,2013-02-11 15:55:00,
2013-02-11 11:00:00,77.8,57.1,30.18,NE,45,3.4,5.8,49,0.00,,,0.00,WSDL version 420,2013-02-11 16:00:00,
2013-02-11 11:05:00,77.8,56.5,30.18,East,86,3.3,5.8,48,0.00,,,0.00,WSDL version 420,2013-02-11 16:05:00,
2013-02-11 11:10:00,77.3,55.8,30.18,ESE,119,1.9,4.7,48,0.00,,,0.00,WSDL version 420,2013-02-11 16:10:00,
2013-02-11 11:20:00,78.8,58.3,30.18,SW,228,5.0,10.1,49,0.00,,,0.00,WSDL version 420,2013-02-11 16:20:00,
2013-02-11 11:25:00,79.1,57.5,30.18,East,90,2.8,10.1,46,0.00,,,0.00,WSDL version 420,2013-02-11 16:25:00,
2013-02-11 11:30:00,78.6,57.0,30.18,ESE,119,2.5,6.5,48,0.00,,,0.00,WSDL version 420,2013-02-11 16:30:00,
2013-02-11 11:35:00,79.1,57.6,30.18,South,185,2.8,6.5,47,0.00,,,0.00,WSDL version 420,2013-02-11 16:35:00,
2013-02-11 11:45:00,78.7,57.0,30.18,ESE,109,3.3,6.7,47,0.00,,,0.00,WSDL version 420,2013-02-11 16:45:00,
2013-02-11 11:50:00,79.3,56.7,30.18,SW,231,3.1,6.7,46,0.00,,,0.00,WSDL version 420,2013-02-11 16:50:00,
2013-02-11 11:55:00,78.6,56.2,30.18,SSW,195,2.9,6.0,47,0.00,,,0.00,WSDL version 420,2013-02-11 16:55:00,
2013-02-11 12:05:00,79.0,56.6,30.18,NNW,347,2.9,9.6,47,0.00,,,0.00,WSDL version 420,2013-02-11 17:05:00,
2013-02-11 12:10:00,79.0,56.6,30.15,South,174,2.9,9.6,47,0.00,,,0.00,WSDL version 420,2013-02-11 17:10:00,
2013-02-11 12:15:00,79.2,57.3,30.15,South,188,3.2,6.3,47,0.00,,,0.00,WSDL version 420,2013-02-11 17:15:00,
2013-02-11 12:20:00,79.4,57.3,30.15,ESE,109,3.5,6.3,47,0.00,,,0.00,WSDL version 420,2013-02-11 17:20:00,
2013-02-11 12:25:00,79.1,57.2,30.15,ESE,109,3.1,4.9,47,0.00,,,0.00,WSDL version 420,2013-02-11 17:25:00,
2013-02-11 12:30:00,79.6,58.0,30.15,SSE,150,3.8,8.5,47,0.00,,,0.00,WSDL version 420,2013-02-11 17:30:00,
2013-02-11 12:35:00,79.4,57.5,30.15,East,98,2.7,8.5,47,0.00,,,0.00,WSDL version 420,2013-02-11 17:35:00,
2013-02-11 12:45:00,79.7,57.7,30.15,SE,129,3.0,4.7,47,0.00,,,0.00,WSDL version 420,2013-02-11 17:45:00,
2013-02-11 12:50:00,79.6,57.9,30.12,SE,141,2.3,4.7,47,0.00,,,0.00,WSDL version 420,2013-02-11 17:50:00,
2013-02-11 12:55:00,79.3,57.4,30.12,SSW,203,2.7,4.0,47,0.00,,,0.00,WSDL version 420,2013-02-11 17:55:00,
2013-02-11 13:00:00,79.2,57.6,30.12,SW,228,2.9,5.4,48,0.00,,,0.00,WSDL version 420,2013-02-11 18:00:00,
2013-02-11 13:10:00,81.1,59.4,30.09,South,177,4.0,6.3,48,0.00,,,0.00,WSDL version 420,2013-02-11 18:10:00,
2013-02-11 13:15:00,81.8,59.9,30.09,West,259,2.3,5.8,47,0.00,,,0.00,WSDL version 420,2013-02-11 18:15:00,
2013-02-11 13:25:00,81.2,57.9,30.12,NNW,333,3.0,7.6,45,0.00,,,0.00,WSDL version 420,2013-02-11 18:25:00,
2013-02-11 13:30:00,81.1,57.4,30.12,NE,39,3.8,7.2,44,0.00,,,0.00,WSDL version 420,2013-02-11 18:30:00,
2013-02-11 13:35:00,79.7,56.8,30.12,West,266,2.8,7.2,45,0.00,,,0.00,WSDL version 420,2013-02-11 18:35:00,
2013-02-11 13:45:00,79.5,57.7,30.12,SE,141,2.7,4.3,47,0.00,,,0.00,WSDL version 420,2013-02-11 18:45:00,
2013-02-11 13:50:00,79.6,57.8,30.12,South,190,3.0,4.3,47,0.00,,,0.00,WSDL version 420,2013-02-11 18:50:00,
2013-02-11 14:00:00,79.8,58.4,30.09,SSW,205,2.7,4.0,48,0.00,,,0.00,WSDL version 420,2013-02-11 19:00:00,
2013-02-11 14:05:00,80.7,59.2,30.12,ESE,122,2.3,4.0,48,0.00,,,0.00,WSDL version 420,2013-02-11 19:05:00,
2013-02-11 14:10:00,81.4,59.3,30.12,SSE,149,3.4,7.4,46,0.00,,,0.00,WSDL version 420,2013-02-11 19:10:00,
2013-02-11 14:15:00,80.4,57.8,30.12,East,90,2.8,7.4,46,0.00,,,0.00,WSDL version 420,2013-02-11 19:15:00,
2013-02-11 14:20:00,79.0,56.7,30.12,South,185,3.2,9.6,47,0.00,,,0.00,WSDL version 420,2013-02-11 19:20:00,
2013-02-11 14:25:00,78.4,57.1,30.09,ENE,72,3.5,9.6,48,0.00,,,0.00,WSDL version 420,2013-02-11 19:25:00,
2013-02-11 14:30:00,78.7,57.8,30.09,East,93,3.2,6.3,49,0.00,,,0.00,WSDL version 420,2013-02-11 19:30:00,
2013-02-11 14:40:00,79.8,58.6,30.09,South,183,3.7,8.5,49,0.00,,,0.00,WSDL version 420,2013-02-11 19:40:00,
2013-02-11 14:45:00,80.2,59.0,30.09,ESE,106,3.4,8.5,48,0.00,,,0.00,WSDL version 420,2013-02-11 19:45:00,
2013-02-11 14:50:00,81.1,59.4,30.09,East,80,2.6,7.4,47,0.00,,,0.00,WSDL version 420,2013-02-11 19:50:00,
2013-02-11 14:55:00,81.0,58.9,30.09,SE,135,3.1,7.4,47,0.00,,,0.00,WSDL version 420,2013-02-11 19:55:00,
2013-02-11 15:00:00,79.9,57.3,30.09,SE,131,3.9,6.3,46,0.00,,,0.00,WSDL version 420,2013-02-11 20:00:00,
2013-02-11 15:05:00,80.6,58.8,30.09,SW,222,4.0,9.8,47,0.00,,,0.00,WSDL version 420,2013-02-11 20:05:00,
2013-02-11 15:10:00,80.9,58.2,30.09,ENE,74,3.8,9.8,46,0.00,,,0.00,WSDL version 420,2013-02-11 20:10:00,
2013-02-11 15:15:00,81.1,58.4,30.09,East,84,3.8,9.6,46,0.00,,,0.00,WSDL version 420,2013-02-11 20:15:00,
2013-02-11 15:20:00,81.0,58.0,30.09,NE,55,4.6,7.2,45,0.00,,,0.00,WSDL version 420,2013-02-11 20:20:00,
2013-02-11 15:25:00,80.0,57.4,30.09,East,100,3.0,7.2,46,0.00,,,0.00,WSDL version 420,2013-02-11 20:25:00,
2013-02-11 15:35:00,79.6,57.6,30.06,ESE,122,4.1,8.5,47,0.00,,,0.00,WSDL version 420,2013-02-11 20:35:00,
2013-02-11 15:40:00,79.3,57.8,30.06,NE,39,5.0,8.7,48,0.00,,,0.00,WSDL version 420,2013-02-11 20:40:00,
2013-02-11 15:45:00,78.8,57.6,30.06,NNW,347,1.5,8.7,49,0.00,,,0.00,WSDL version 420,2013-02-11 20:45:00,
2013-02-11 15:50:00,78.2,57.5,30.06,NE,48,2.7,4.7,49,0.00,,,0.00,WSDL version 420,2013-02-11 20:50:00,
2013-02-11 15:55:00,77.5,56.8,30.06,SSE,165,2.9,3.8,49,0.00,,,0.00,WSDL version 420,2013-02-11 20:55:00,
2013-02-11 16:00:00,77.2,57.1,30.06,East,83,3.2,4.0,50,0.00,,,0.00,WSDL version 420,2013-02-11 21:00:00,
2013-02-11 16:05:00,77.0,57.5,30.06,ENE,65,3.1,4.9,51,0.00,,,0.00,WSDL version 420,2013-02-11 21:05:00,
2013-02-11 16:10:00,76.7,57.2,30.06,West,274,3.2,4.9,51,0.00,,,0.00,WSDL version 420,2013-02-11 21:10:00,
2013-02-11 16:15:00,76.2,57.0,30.06,ENE,59,3.0,4.7,52,0.00,,,0.00,WSDL version 420,2013-02-11 21:15:00,
2013-02-11 16:25:00,76.4,58.0,30.06,North,3,2.1,8.1,53,0.00,,,0.00,WSDL version 420,2013-02-11 21:25:00,
2013-02-11 16:30:00,76.3,58.0,30.06,North,360,2.9,7.4,53,0.00,,,0.00,WSDL version 420,2013-02-11 21:30:00,
2013-02-11 16:40:00,76.8,58.4,30.06,ENE,71,3.4,5.8,53,0.00,,,0.00,WSDL version 420,2013-02-11 21:40:00,
2013-02-11 16:45:00,77.0,58.1,30.06,SE,131,2.0,5.8,52,0.00,,,0.00,WSDL version 420,2013-02-11 21:45:00,
2013-02-11 16:50:00,76.9,57.8,30.06,ENE,58,3.5,8.7,52,0.00,,,0.00,WSDL version 420,2013-02-11 21:50:00,
2013-02-11 16:55:00,76.6,57.4,30.06,WSW,240,2.7,8.7,51,0.00,,,0.00,WSDL version 420,2013-02-11 21:55:00,
2013-02-11 17:00:00,76.6,57.3,30.06,SW,219,2.6,5.6,52,0.00,,,0.00,WSDL version 420,2013-02-11 22:00:00,
2013-02-11 17:05:00,76.6,57.5,30.03,East,90,3.7,6.3,51,0.00,,,0.00,WSDL version 420,2013-02-11 22:05:00,
2013-02-11 17:10:00,76.3,56.8,30.03,NW,324,2.8,6.3,51,0.00,,,0.00,WSDL version 420,2013-02-11 22:10:00,
2013-02-11 17:15:00,76.0,57.2,30.03,NE,41,3.0,6.5,52,0.00,,,0.00,WSDL version 420,2013-02-11 22:15:00,
2013-02-11 17:20:00,75.8,56.9,30.03,ENE,72,2.6,6.5,52,0.00,,,0.00,WSDL version 420,2013-02-11 22:20:00,
2013-02-11 17:25:00,75.7,57.3,30.06,WNW,293,3.1,4.7,53,0.00,,,0.00,WSDL version 420,2013-02-11 22:25:00,
2013-02-11 17:30:00,75.5,57.2,30.06,ENE,68,2.9,7.4,53,0.00,,,0.00,WSDL version 420,2013-02-11 22:30:00,
2013-02-11 17:35:00,75.1,57.1,30.06,ENE,72,3.8,7.4,54,0.00,,,0.00,WSDL version 420,2013-02-11 22:35:00,
2013-02-11 17:40:00,74.7,57.0,30.06,South,176,2.3,6.5,54,0.00,,,0.00,WSDL version 420,2013-02-11 22:40:00,
2013-02-11 17:45:00,74.4,56.7,30.06,NNW,338,1.7,5.8,54,0.00,,,0.00,WSDL version 420,2013-02-11 22:45:00,
2013-02-11 17:50:00,74.1,56.7,30.03,ENE,68,2.8,5.8,55,0.00,,,0.00,WSDL version 420,2013-02-11 22:50:00,
2013-02-11 17:55:00,73.8,56.6,30.03,NNE,23,2.7,4.9,55,0.00,,,0.00,WSDL version 420,2013-02-11 22:55:00,
2013-02-11 18:00:00,73.4,56.6,30.03,SE,146,1.1,4.9,56,0.00,,,0.00,WSDL version 420,2013-02-11 23:00:00,
2013-02-11 18:05:00,73.1,56.5,30.03,SSE,167,1.3,2.7,56,0.00,,,0.00,WSDL version 420,2013-02-11 23:05:00,
2013-02-11 18:10:00,72.9,56.6,30.03,West,270,1.3,2.9,57,0.00,,,0.00,WSDL version 420,2013-02-11 23:10:00,
2013-02-11 18:15:00,72.6,56.5,30.03,WNW,293,1.5,2.9,57,0.00,,,0.00,WSDL version 420,2013-02-11 23:15:00,
2013-02-11 18:20:00,72.4,56.4,30.06,ENE,73,0.3,2.9,58,0.00,,,0.00,WSDL version 420,2013-02-11 23:20:00,
2013-02-11 18:25:00,72.2,56.6,30.06,SSW,195,1.3,2.5,58,0.00,,,0.00,WSDL version 420,2013-02-11 23:25:00,
2013-02-11 18:30:00,71.9,56.5,30.06,West,266,0.9,2.2,59,0.00,,,0.00,WSDL version 420,2013-02-11 23:30:00,
2013-02-11 18:35:00,71.7,56.7,30.06,ENE,62,1.0,2.2,59,0.00,,,0.00,WSDL version 420,2013-02-11 23:35:00,
2013-02-11 18:40:00,71.6,56.8,30.06,ENE,72,1.3,2.7,60,0.00,,,0.00,WSDL version 420,2013-02-11 23:40:00,
2013-02-11 18:45:00,71.4,56.8,30.06,NE,34,0.6,2.7,60,0.00,,,0.00,WSDL version 420,2013-02-11 23:45:00,
2013-02-11 18:50:00,71.3,57.2,30.06,East,79,1.3,2.5,61,0.00,,,0.00,WSDL version 420,2013-02-11 23:50:00,
2013-02-11 18:55:00,71.1,57.0,30.06,SSE,158,0.0,2.5,61,0.00,,,0.00,WSDL version 420,2013-02-11 23:55:00,
2013-02-11 19:00:00,71.0,56.9,30.06,ESE,120,1.3,1.3,61,0.00,,,0.00,WSDL version 420,2013-02-12 00:00:00,
2013-02-11 19:05:00,70.8,56.7,30.06,East,83,0.0,0.0,61,0.00,,,0.00,WSDL version 420,2013-02-12 00:05:00,
2013-02-11 19:10:00,70.7,56.9,30.06,ENE,75,0.0,0.0,62,0.00,,,0.00,WSDL version 420,2013-02-12 00:10:00,
2013-02-11 19:15:00,70.6,56.9,30.06,WNW,293,0.0,1.3,62,0.00,,,0.00,WSDL version 420,2013-02-12 00:15:00,
2013-02-11 19:20:00,70.5,56.9,30.06,ESE,113,0.0,1.3,62,0.00,,,0.00,WSDL version 420,2013-02-12 00:20:00,
2013-02-11 19:25:00,70.3,56.7,30.06,East,90,0.0,0.0,63,0.00,,,0.00,WSDL version 420,2013-02-12 00:25:00,
2013-02-11 19:30:00,70.1,56.9,30.06,East,90,0.0,0.0,63,0.00,,,0.00,WSDL version 420,2013-02-12 00:30:00,
2013-02-11 19:35:00,70.0,56.8,30.06,NE,53,0.0,0.0,63,0.00,,,0.00,WSDL version 420,2013-02-12 00:35:00,
2013-02-11 19:40:00,69.8,57.1,30.06,ESE,113,0.0,0.0,64,0.00,,,0.00,WSDL version 420,2013-02-12 00:40:00,
2013-02-11 19:45:00,69.6,57.3,30.06,ESE,113,0.0,0.0,65,0.00,,,0.00,WSDL version 420,2013-02-12 00:45:00,
2013-02-11 19:50:00,69.5,57.3,30.09,East,84,0.0,0.0,65,0.00,,,0.00,WSDL version 420,2013-02-12 00:50:00,
2013-02-11 19:55:00,69.4,57.5,30.09,WSW,242,0.0,0.0,66,0.00,,,0.00,WSDL version 420,2013-02-12 00:55:00,
2013-02-11 20:00:00,69.2,57.4,30.09,NE,45,0.0,0.0,66,0.00,,,0.00,WSDL version 420,2013-02-12 01:00:00,
2013-02-11 20:05:00,69.1,57.6,30.09,ENE,72,0.0,0.0,67,0.00,,,0.00,WSDL version 420,2013-02-12 01:05:00,
2013-02-11 20:10:00,69.0,57.6,30.09,ENE,68,0.0,0.0,67,0.00,,,0.00,WSDL version 420,2013-02-12 01:10:00,
2013-02-11 20:15:00,68.9,57.9,30.09,ENE,68,0.0,0.0,68,0.00,,,0.00,WSDL version 420,2013-02-12 01:15:00,
2013-02-11 20:20:00,68.7,57.7,30.09,ENE,68,0.0,0.0,68,0.00,,,0.00,WSDL version 420,2013-02-12 01:20:00,
2013-02-11 20:25:00,68.6,57.9,30.09,ENE,68,0.0,0.0,69,0.00,,,0.00,WSDL version 420,2013-02-12 01:25:00,
2013-02-11 20:30:00,68.5,58.0,30.09,ESE,113,0.0,0.0,69,0.00,,,0.00,WSDL version 420,2013-02-12 01:30:00,
2013-02-11 20:35:00,68.4,57.8,30.09,ESE,113,0.0,0.0,69,0.00,,,0.00,WSDL version 420,2013-02-12 01:35:00,
2013-02-11 20:40:00,68.1,57.9,30.09,ESE,113,0.0,0.0,70,0.00,,,0.00,WSDL version 420,2013-02-12 01:40:00,
2013-02-11 20:45:00,67.9,58.0,30.09,ESE,113,0.0,0.0,71,0.00,,,0.00,WSDL version 420,2013-02-12 01:45:00,
2013-02-11 20:50:00,67.8,58.0,30.09,ESE,113,0.0,0.0,71,0.00,,,0.00,WSDL version 420,2013-02-12 01:50:00,
2013-02-11 20:55:00,67.6,57.8,30.09,ESE,113,0.0,0.0,71,0.00,,,0.00,WSDL version 420,2013-02-12 01:55:00,
2013-02-11 21:00:00,67.4,57.7,30.09,ESE,113,0.0,0.0,72,0.00,,,0.00,WSDL version 420,2013-02-12 02:00:00,
2013-02-11 21:05:00,67.2,57.9,30.09,ESE,113,0.0,0.0,72,0.00,,,0.00,WSDL version 420,2013-02-12 02:05:00,
2013-02-11 21:10:00,67.1,57.7,30.09,ESE,113,0.0,0.0,72,0.00,,,0.00,WSDL version 420,2013-02-12 02:10:00,
2013-02-11 21:15:00,66.9,57.6,30.09,ESE,113,0.0,0.0,72,0.00,,,0.00,WSDL version 420,2013-02-12 02:15:00,
2013-02-11 21:20:00,66.7,57.7,30.09,ESE,113,0.0,0.0,73,0.00,,,0.00,WSDL version 420,2013-02-12 02:20:00,
2013-02-11 21:25:00,66.7,57.7,30.09,ESE,113,0.0,0.0,73,0.00,,,0.00,WSDL version 420,2013-02-12 02:25:00,
2013-02-11 21:30:00,66.4,57.7,30.09,ESE,113,0.0,0.0,74,0.00,,,0.00,WSDL version 420,2013-02-12 02:30:00,
2013-02-11 21:35:00,66.3,57.8,30.09,ESE,113,0.0,0.0,74,0.00,,,0.00,WSDL version 420,2013-02-12 02:35:00,
2013-02-11 21:40:00,66.2,58.0,30.09,ESE,113,0.0,0.0,75,0.00,,,0.00,WSDL version 420,2013-02-12 02:40:00,
2013-02-11 21:45:00,66.0,57.9,30.09,ESE,113,0.0,0.0,75,0.00,,,0.00,WSDL version 420,2013-02-12 02:45:00,
2013-02-11 21:50:00,66.0,58.1,30.09,ESE,113,0.0,0.0,75,0.00,,,0.00,WSDL version 420,2013-02-12 02:50:00,
2013-02-11 21:55:00,65.8,57.9,30.09,ESE,113,0.0,0.0,76,0.00,,,0.00,WSDL version 420,2013-02-12 02:55:00,
2013-02-11 22:00:00,65.8,58.0,30.09,ESE,113,0.0,0.0,76,0.00,,,0.00,WSDL version 420,2013-02-12 03:00:00,
2013-02-11 22:05:00,65.7,58.2,30.09,ESE,113,0.0,0.0,77,0.00,,,0.00,WSDL version 420,2013-02-12 03:05:00,
2013-02-11 22:10:00,65.5,58.1,30.09,ESE,113,0.0,0.0,77,0.00,,,0.00,WSDL version 420,2013-02-12 03:10:00,
2013-02-11 22:15:00,65.5,58.1,30.09,ESE,113,0.0,0.0,77,0.00,,,0.00,WSDL version 420,2013-02-12 03:15:00,
2013-02-11 22:20:00,65.5,58.3,30.09,North,0,0.0,0.0,78,0.00,,,0.00,WSDL version 420,2013-02-12 03:20:00,
2013-02-11 22:25:00,65.3,58.2,30.09,ESE,113,0.0,0.0,78,0.00,,,0.00,WSDL version 420,2013-02-12 03:25:00,
2013-02-11 22:30:00,65.1,58.1,30.09,ESE,113,0.0,0.0,78,0.00,,,0.00,WSDL version 420,2013-02-12 03:30:00,
2013-02-11 22:35:00,65.0,58.2,30.09,ESE,113,0.0,0.0,79,0.00,,,0.00,WSDL version 420,2013-02-12 03:35:00,
2013-02-11 22:40:00,64.9,58.3,30.09,ESE,113,0.0,0.0,79,0.00,,,0.00,WSDL version 420,2013-02-12 03:40:00,
2013-02-11 22:45:00,64.9,58.3,30.09,ESE,113,0.0,0.0,79,0.00,,,0.00,WSDL version 420,2013-02-12 03:45:00,
2013-02-11 22:50:00,64.8,58.1,30.09,ESE,113,0.0,0.0,79,0.00,,,0.00,WSDL version 420,2013-02-12 03:50:00,
2013-02-11 22:55:00,64.8,58.5,30.09,ESE,113,0.0,0.0,80,0.00,,,0.00,WSDL version 420,2013-02-12 03:55:00,
2013-02-11 23:00:00,64.6,58.3,30.09,ESE,113,0.0,0.0,80,0.00,,,0.00,WSDL version 420,2013-02-12 04:00:00,
2013-02-11 23:05:00,64.6,58.3,30.09,ESE,113,0.0,0.0,80,0.00,,,0.00,WSDL version 420,2013-02-12 04:05:00,
2013-02-11 23:10:00,64.4,58.1,30.09,ESE,113,0.0,0.0,80,0.00,,,0.00,WSDL version 420,2013-02-12 04:10:00,
2013-02-11 23:15:00,64.4,58.1,30.09,SE,135,0.0,0.0,80,0.00,,,0.00,WSDL version 420,2013-02-12 04:15:00,
2013-02-11 23:20:00,64.4,58.1,30.06,SE,135,0.0,0.0,80,0.00,,,0.00,WSDL version 420,2013-02-12 04:20:00,
2013-02-11 23:25:00,64.4,58.5,30.06,SE,135,0.0,0.0,81,0.00,,,0.00,WSDL version 420,2013-02-12 04:25:00,
2013-02-11 23:30:00,64.3,58.4,30.06,SE,135,0.0,0.0,81,0.00,,,0.00,WSDL version 420,2013-02-12 04:30:00,
2013-02-11 23:35:00,64.2,58.3,30.06,SE,135,0.0,0.0,81,0.00,,,0.00,WSDL version 420,2013-02-12 04:35:00,
2013-02-11 23:40:00,64.2,58.3,30.06,SE,135,0.0,0.0,81,0.00,,,0.00,WSDL version 420,2013-02-12 04:40:00,
2013-02-11 23:45:00,64.0,58.1,30.06,SE,135,0.0,0.0,81,0.00,,,0.00,WSDL version 420,2013-02-12 04:45:00,
2013-02-11 23:50:00,63.9,58.0,30.09,East,90,0.0,0.0,81,0.00,,,0.00,WSDL version 420,2013-02-12 04:50:00,
2013-02-11 23:55:00,63.9,58.0,30.09,East,90,0.0,0.0,81,0.00,,,0.00,WSDL version 420,2013-02-12 04:55:00,